map of RNT home
RNT - Airport
Location
City:  Renton, Washington, United States
Name:Renton Municipal Airport
ICAO:KRNT
IATA:RNT
FAA LID:RNT

Details
Type:Airport (Airfield)
Use:Public/Civil, International (customs landing rights)
Latitude:4729'35"N (47.493139)
Longitude:12212'57"W (-122.215749)
Datum:WGS 1984
Elevation:32 ft (10 m)
Variation:15.56E (WMM2015 magnetic declination)
-0.14 annual change
Runways:1
Longest:5382 × 200 ft (1640 × 61 m), paved

Time
Time Zone:UTC-8 (DST-7)
Local Time:

Weather
METAR:KRNT 160653Z 00000KT 10SM CLR 09/07 A3031 RMK AO2 SLP269 T00890067

Related Locations
Nearby:
Farthest:FTU: 10773 mi / 17338 km
Tolagnaro [Maurillac Airport (Fort Dauphin Airport)], MG

Find:

   beyond  
but within

Other Information
Maps:
NOTAMs:
Links:
Sources:

  
  • flag of United States
  • flag of Washington
  

Airport Diagram

Airport diagram for RNT

Airport diagram PDF

Sectional Chart

Flight Planning
at skyvector.com

Satellite Image

Google Maps Satellite view

 

Copyright © 2004-2018 Karl L. Swartz. All rights reserved.
The Great Circle Mapper name and logo are trademarks of the Great Circle Mapper.
All other trademarks mentioned herein belong to their respective owners.
Please see credits for attibutions and further copyright information.

  Follow gcmap on Facebook Follow gcmap on Twitter Follow gcmap on Google+ GCmap on LinkedIn

hCard Microformat

Geo Microformat